Time,TemperatureF,DewpointF,PressureIn,WindDirection,WindDirectionDegrees,WindSpeedMPH,WindSpeedGustMPH,Humidity,HourlyPrecipIn,Conditions,Clouds,dailyrainin,SoftwareType,DateUTC
2013-03-03 00:00:00,38.1,36.3,30.19,ESE,110,5.0,8.0,93,0.01,,---,0.17,VWS V14.01,2013-03-03 08:00:00,
2013-03-03 00:05:00,38.0,36.4,30.19,SSE,152,1.0,5.0,94,0.01,,---,0.00,VWS V14.01,2013-03-03 08:05:00,
2013-03-03 00:10:00,37.9,36.3,30.19,ESE,112,1.0,5.0,94,0.01,,---,0.00,VWS V14.01,2013-03-03 08:10:00,
2013-03-03 00:15:00,37.9,36.3,30.20,ESE,117,2.0,6.0,94,0.01,,---,0.00,VWS V14.01,2013-03-03 08:15:00,
2013-03-03 00:20:00,37.9,36.3,30.20,SE,141,4.0,5.0,94,0.01,,---,0.00,VWS V14.01,2013-03-03 08:20:00,
2013-03-03 00:25:00,37.7,36.1,30.20,ESE,122,3.0,6.0,94,0.01,,---,0.00,VWS V14.01,2013-03-03 08:25:00,
2013-03-03 00:30:00,37.7,36.1,30.20,East,92,3.0,6.0,94,0.01,,---,0.00,VWS V14.01,2013-03-03 08:30:00,
2013-03-03 00:35:00,37.7,36.1,30.20,ESE,113,3.0,5.0,94,0.01,,---,0.00,VWS V14.01,2013-03-03 08:35:00,
2013-03-03 00:40:00,37.6,36.0,30.20,East,91,3.0,6.0,94,0.01,,---,0.00,VWS V14.01,2013-03-03 08:40:00,
2013-03-03 00:45:00,37.5,35.9,30.20,ESE,107,0.0,4.0,94,0.01,,---,0.00,VWS V14.01,2013-03-03 08:45:00,
2013-03-03 00:50:00,37.4,35.8,30.20,ESE,114,0.0,2.0,94,0.01,,---,0.00,VWS V14.01,2013-03-03 08:50:00,
2013-03-03 00:55:00,37.3,35.7,30.20,ESE,102,1.0,3.0,94,0.00,,---,0.00,VWS V14.01,2013-03-03 08:55:00,
2013-03-03 01:00:00,37.3,35.7,30.20,SE,125,1.0,3.0,94,0.00,,---,0.00,VWS V14.01,2013-03-03 09:00:00,
2013-03-03 01:05:00,37.5,35.9,30.20,ESE,107,2.0,3.0,94,0.00,,---,0.00,VWS V14.01,2013-03-03 09:05:00,
2013-03-03 01:10:00,37.6,35.8,30.20,East,101,2.0,4.0,93,0.00,,---,0.00,VWS V14.01,2013-03-03 09:10:00,
2013-03-03 01:15:00,37.6,35.8,30.20,East,100,2.0,3.0,93,0.00,,---,0.00,VWS V14.01,2013-03-03 09:15:00,
2013-03-03 01:20:00,37.6,35.8,30.21,East,100,2.0,3.0,93,0.00,,---,0.00,VWS V14.01,2013-03-03 09:20:00,
2013-03-03 01:25:00,37.6,35.8,30.21,East,99,2.0,3.0,93,0.00,,---,0.00,VWS V14.01,2013-03-03 09:25:00,
2013-03-03 01:30:00,37.5,35.7,30.21,ESE,110,1.0,4.0,93,0.00,,---,0.00,VWS V14.01,2013-03-03 09:30:00,
2013-03-03 01:35:00,37.5,35.7,30.22,East,94,3.0,5.0,93,0.00,,---,0.00,VWS V14.01,2013-03-03 09:35:00,
2013-03-03 01:40:00,37.6,35.8,30.21,ESE,104,2.0,6.0,93,0.00,,---,0.00,VWS V14.01,2013-03-03 09:40:00,
2013-03-03 01:45:00,37.6,35.8,30.21,SE,131,1.0,4.0,93,0.00,,---,0.00,VWS V14.01,2013-03-03 09:45:00,
2013-03-03 01:50:00,37.5,35.7,30.21,East,96,3.0,4.0,93,0.00,,---,0.00,VWS V14.01,2013-03-03 09:50:00,
2013-03-03 01:55:00,37.5,35.7,30.22,ESE,104,3.0,4.0,93,0.00,,---,0.00,VWS V14.01,2013-03-03 09:55:00,
2013-03-03 02:00:00,37.2,35.6,30.23,SSE,161,0.0,1.0,94,0.00,,---,0.00,VWS V14.01,2013-03-03 10:00:00,
2013-03-03 02:05:00,37.1,35.5,30.22,SSE,157,0.0,2.0,94,0.00,,---,0.00,VWS V14.01,2013-03-03 10:05:00,
2013-03-03 02:10:00,37.0,35.4,30.22,SSW,201,2.0,3.0,94,0.00,,---,0.00,VWS V14.01,2013-03-03 10:10:00,
2013-03-03 02:15:00,37.0,35.4,30.22,ESE,119,1.0,4.0,94,0.00,,---,0.00,VWS V14.01,2013-03-03 10:15:00,
2013-03-03 02:20:00,37.0,35.4,30.23,ESE,116,1.0,2.0,94,0.00,,---,0.00,VWS V14.01,2013-03-03 10:20:00,
2013-03-03 02:25:00,37.0,35.4,30.22,ESE,115,0.0,1.0,94,0.00,,---,0.00,VWS V14.01,2013-03-03 10:25:00,
2013-03-03 02:30:00,36.9,35.3,30.22,ESE,110,1.0,2.0,94,0.00,,---,0.00,VWS V14.01,2013-03-03 10:30:00,
2013-03-03 02:33:00,37.5,35.9,30.22,ESE,105,1.0,2.0,94,0.00,,---,0.00,VWS V14.01,2013-03-03 10:33:00,
2013-03-03 02:35:00,36.9,35.3,30.22,ESE,110,1.0,2.0,94,0.00,,---,0.00,VWS V14.01,2013-03-03 10:35:00,
2013-03-03 02:38:00,37.5,35.9,30.22,ESE,105,1.0,1.0,94,0.00,,---,0.00,VWS V14.01,2013-03-03 10:38:00,
2013-03-03 02:40:00,37.0,35.4,30.22,East,95,2.0,2.0,94,0.00,,---,0.00,VWS V14.01,2013-03-03 10:40:00,
2013-03-03 02:43:00,37.4,35.8,30.22,East,94,1.0,2.0,94,0.00,,---,0.00,VWS V14.01,2013-03-03 10:43:00,
2013-03-03 02:45:00,37.0,35.2,30.22,ESE,109,1.0,3.0,93,0.00,,---,0.00,VWS V14.01,2013-03-03 10:45:00,
2013-03-03 02:48:00,37.3,35.7,30.22,East,101,0.0,1.0,94,0.00,,---,0.00,VWS V14.01,2013-03-03 10:48:00,
2013-03-03 02:50:00,36.8,35.2,30.23,ESE,110,1.0,2.0,94,0.00,,---,0.00,VWS V14.01,2013-03-03 10:50:00,
2013-03-03 02:53:00,37.2,35.6,30.22,SE,140,0.0,1.0,94,0.00,,---,0.00,VWS V14.01,2013-03-03 10:53:00,
2013-03-03 02:55:00,36.9,35.3,30.23,East,101,2.0,3.0,94,0.00,,---,0.00,VWS V14.01,2013-03-03 10:55:00,
2013-03-03 02:58:00,37.2,35.6,30.23,South,188,0.0,1.0,94,0.00,,---,0.00,VWS V14.01,2013-03-03 10:58:00,
2013-03-03 03:00:00,36.7,35.1,30.23,East,100,0.0,2.0,94,0.00,,---,0.00,VWS V14.01,2013-03-03 11:00:00,
2013-03-03 03:03:00,37.2,35.6,30.23,SSE,148,0.0,1.0,94,0.00,,---,0.00,VWS V14.01,2013-03-03 11:03:00,
2013-03-03 03:05:00,36.6,35.0,30.23,East,100,1.0,2.0,94,0.00,,---,0.00,VWS V14.01,2013-03-03 11:05:00,
2013-03-03 03:08:00,37.1,35.5,30.22,South,179,2.0,2.0,94,0.00,,---,0.00,VWS V14.01,2013-03-03 11:08:00,
2013-03-03 03:10:00,36.6,35.0,30.23,ESE,102,0.0,2.0,94,0.00,,---,0.00,VWS V14.01,2013-03-03 11:10:00,
2013-03-03 03:13:00,37.0,35.4,30.22,SSE,155,0.0,4.0,94,0.00,,---,0.00,VWS V14.01,2013-03-03 11:13:00,
2013-03-03 03:15:00,36.4,34.8,30.23,East,98,0.0,1.0,94,0.00,,---,0.00,VWS V14.01,2013-03-03 11:15:00,
2013-03-03 03:18:00,37.0,35.4,30.22,SE,134,2.0,2.0,94,0.00,,---,0.00,VWS V14.01,2013-03-03 11:18:00,
2013-03-03 03:20:00,36.4,34.8,30.24,ESE,120,0.0,1.0,94,0.00,,---,0.00,VWS V14.01,2013-03-03 11:20:00,
2013-03-03 03:23:00,37.0,35.4,30.23,ESE,118,1.0,1.0,94,0.00,,---,0.00,VWS V14.01,2013-03-03 11:23:00,
2013-03-03 03:25:00,36.4,34.8,30.24,ESE,105,1.0,1.0,94,0.00,,---,0.00,VWS V14.01,2013-03-03 11:25:00,
2013-03-03 03:28:00,37.0,35.4,30.23,East,98,0.0,2.0,94,0.00,,---,0.00,VWS V14.01,2013-03-03 11:28:00,
2013-03-03 03:30:00,36.4,34.8,30.24,East,85,1.0,2.0,94,0.00,,---,0.00,VWS V14.01,2013-03-03 11:30:00,
2013-03-03 03:33:00,36.9,35.3,30.22,ESE,118,1.0,1.0,94,0.00,,---,0.00,VWS V14.01,2013-03-03 11:33:00,
2013-03-03 03:35:00,36.3,34.7,30.24,East,94,1.0,2.0,94,0.00,,---,0.00,VWS V14.01,2013-03-03 11:35:00,
2013-03-03 03:38:00,37.0,35.4,30.22,SE,124,1.0,2.0,94,0.00,,---,0.00,VWS V14.01,2013-03-03 11:38:00,
2013-03-03 03:40:00,36.2,34.6,30.24,East,99,2.0,3.0,94,0.00,,---,0.00,VWS V14.01,2013-03-03 11:40:00,
2013-03-03 03:43:00,37.0,35.4,30.22,East,98,2.0,3.0,94,0.00,,---,0.00,VWS V14.01,2013-03-03 11:43:00,
2013-03-03 03:45:00,36.2,34.9,30.25,East,86,2.0,3.0,95,0.00,,---,0.00,VWS V14.01,2013-03-03 11:45:00,
2013-03-03 03:48:00,36.9,35.1,30.22,East,80,0.0,1.0,93,0.00,,---,0.00,VWS V14.01,2013-03-03 11:48:00,
2013-03-03 03:50:00,36.2,34.6,30.25,East,94,1.0,3.0,94,0.00,,---,0.00,VWS V14.01,2013-03-03 11:50:00,
2013-03-03 03:53:00,36.9,35.3,30.23,ESE,110,1.0,1.0,94,0.00,,---,0.00,VWS V14.01,2013-03-03 11:53:00,
2013-03-03 03:55:00,36.3,34.7,30.25,ESE,110,0.0,3.0,94,0.00,,---,0.00,VWS V14.01,2013-03-03 11:55:00,
2013-03-03 03:58:00,36.8,35.2,30.22,East,98,1.0,2.0,94,0.00,,---,0.00,VWS V14.01,2013-03-03 11:58:00,
2013-03-03 04:00:00,36.3,34.7,30.25,East,92,1.0,3.0,94,0.00,,---,0.00,VWS V14.01,2013-03-03 12:00:00,
2013-03-03 04:03:00,36.7,35.1,30.22,SE,126,0.0,1.0,94,0.00,,---,0.00,VWS V14.01,2013-03-03 12:03:00,
2013-03-03 04:05:00,36.2,34.4,30.25,ESE,109,0.0,2.0,93,0.00,,---,0.00,VWS V14.01,2013-03-03 12:05:00,
2013-03-03 04:08:00,36.6,35.0,30.23,East,93,1.0,2.0,94,0.00,,---,0.00,VWS V14.01,2013-03-03 12:08:00,
2013-03-03 04:10:00,36.2,34.4,30.25,ESE,103,1.0,3.0,93,0.00,,---,0.00,VWS V14.01,2013-03-03 12:10:00,
2013-03-03 04:13:00,36.5,34.9,30.23,ESE,102,0.0,0.0,94,0.00,,---,0.00,VWS V14.01,2013-03-03 12:13:00,
2013-03-03 04:15:00,36.2,34.4,30.25,SE,130,0.0,3.0,93,0.00,,---,0.00,VWS V14.01,2013-03-03 12:15:00,
2013-03-03 04:18:00,36.4,34.8,30.23,ESE,120,1.0,1.0,94,0.00,,---,0.00,VWS V14.01,2013-03-03 12:18:00,
2013-03-03 04:20:00,36.2,34.4,30.25,ENE,63,1.0,2.0,93,0.00,,---,0.00,VWS V14.01,2013-03-03 12:20:00,
2013-03-03 04:23:00,36.4,34.8,30.24,East,96,0.0,0.0,94,0.00,,---,0.00,VWS V14.01,2013-03-03 12:23:00,
2013-03-03 04:25:00,36.2,34.4,30.25,East,101,3.0,3.0,93,0.00,,---,0.00,VWS V14.01,2013-03-03 12:25:00,
2013-03-03 04:28:00,36.4,34.8,30.24,ESE,105,0.0,1.0,94,0.00,,---,0.00,VWS V14.01,2013-03-03 12:28:00,
2013-03-03 04:30:00,36.5,34.7,30.25,ESE,110,4.0,6.0,93,0.00,,---,0.00,VWS V14.01,2013-03-03 12:30:00,
2013-03-03 04:33:00,36.4,34.8,30.24,East,93,1.0,1.0,94,0.00,,---,0.00,VWS V14.01,2013-03-03 12:33:00,
2013-03-03 04:35:00,36.4,34.6,30.25,ESE,105,3.0,5.0,93,0.00,,---,0.00,VWS V14.01,2013-03-03 12:35:00,
2013-03-03 04:38:00,36.3,34.7,30.24,East,95,2.0,2.0,94,0.00,,---,0.00,VWS V14.01,2013-03-03 12:38:00,
2013-03-03 04:40:00,36.3,34.5,30.26,SE,126,0.0,3.0,93,0.00,,---,0.00,VWS V14.01,2013-03-03 12:40:00,
2013-03-03 04:43:00,36.2,34.6,30.24,East,94,2.0,3.0,94,0.00,,---,0.00,VWS V14.01,2013-03-03 12:43:00,
2013-03-03 04:45:00,36.3,34.5,30.26,East,98,2.0,2.0,93,0.00,,---,0.00,VWS V14.01,2013-03-03 12:45:00,
2013-03-03 04:48:00,36.2,34.9,30.25,East,81,1.0,2.0,95,0.00,,---,0.00,VWS V14.01,2013-03-03 12:48:00,
2013-03-03 04:50:00,36.4,34.6,30.26,SE,125,2.0,4.0,93,0.00,,---,0.00,VWS V14.01,2013-03-03 12:50:00,
2013-03-03 04:53:00,36.3,34.7,30.25,ESE,103,1.0,3.0,94,0.00,,---,0.00,VWS V14.01,2013-03-03 12:53:00,
2013-03-03 04:55:00,36.3,34.5,30.26,SSE,160,1.0,4.0,93,0.00,,---,0.00,VWS V14.01,2013-03-03 12:55:00,
2013-03-03 04:58:00,36.3,34.7,30.25,ESE,107,0.0,2.0,94,0.00,,---,0.00,VWS V14.01,2013-03-03 12:58:00,
2013-03-03 05:00:00,36.3,34.5,30.26,SE,139,1.0,4.0,93,0.00,,---,0.00,VWS V14.01,2013-03-03 13:00:00,
2013-03-03 05:03:00,36.3,34.5,30.25,SE,133,0.0,1.0,93,0.00,,---,0.00,VWS V14.01,2013-03-03 13:03:00,
2013-03-03 05:05:00,36.3,34.5,30.26,South,169,1.0,4.0,93,0.00,,---,0.00,VWS V14.01,2013-03-03 13:05:00,
2013-03-03 05:07:00,36.2,34.4,30.25,East,80,1.0,2.0,93,0.00,,---,0.00,VWS V14.01,2013-03-03 13:07:00,
2013-03-03 05:10:00,36.4,34.3,30.26,SSE,149,0.0,5.0,92,0.00,,---,0.00,VWS V14.01,2013-03-03 13:10:00,
2013-03-03 05:13:00,36.2,34.4,30.25,East,93,0.0,2.0,93,0.00,,---,0.00,VWS V14.01,2013-03-03 13:13:00,
2013-03-03 05:15:00,36.3,34.2,30.26,SSE,151,1.0,3.0,92,0.00,,---,0.00,VWS V14.01,2013-03-03 13:15:00,
2013-03-03 05:18:00,36.2,34.4,30.25,SE,124,1.0,2.0,93,0.00,,---,0.00,VWS V14.01,2013-03-03 13:18:00,
2013-03-03 05:20:00,36.3,34.2,30.26,SE,142,0.0,3.0,92,0.00,,---,0.00,VWS V14.01,2013-03-03 13:20:00,
2013-03-03 05:23:00,36.2,34.4,30.25,ESE,103,0.0,2.0,93,0.00,,---,0.00,VWS V14.01,2013-03-03 13:23:00,
2013-03-03 05:25:00,36.0,33.9,30.26,SE,141,0.0,1.0,92,0.00,,---,0.00,VWS V14.01,2013-03-03 13:25:00,
2013-03-03 05:28:00,36.3,34.5,30.25,ESE,121,2.0,4.0,93,0.00,,---,0.00,VWS V14.01,2013-03-03 13:28:00,
2013-03-03 05:30:00,35.7,33.9,30.26,SE,146,0.0,1.0,93,0.00,,---,0.00,VWS V14.01,2013-03-03 13:30:00,
2013-03-03 05:33:00,36.5,34.7,30.25,East,90,3.0,5.0,93,0.00,,---,0.00,VWS V14.01,2013-03-03 13:33:00,
2013-03-03 05:35:00,35.7,33.9,30.26,SE,125,0.0,2.0,93,0.00,,---,0.00,VWS V14.01,2013-03-03 13:35:00,
2013-03-03 05:38:00,36.4,34.6,30.25,East,101,1.0,3.0,93,0.00,,---,0.00,VWS V14.01,2013-03-03 13:38:00,
2013-03-03 05:40:00,35.7,33.9,30.26,SE,144,0.0,2.0,93,0.00,,---,0.00,VWS V14.01,2013-03-03 13:40:00,
2013-03-03 05:43:00,36.3,34.5,30.26,SSE,150,0.0,1.0,93,0.00,,---,0.00,VWS V14.01,2013-03-03 13:43:00,
2013-03-03 05:45:00,35.6,33.8,30.26,SSE,159,0.0,1.0,93,0.00,,---,0.00,VWS V14.01,2013-03-03 13:45:00,
2013-03-03 05:48:00,36.3,34.5,30.26,East,98,3.0,4.0,93,0.00,,---,0.00,VWS V14.01,2013-03-03 13:48:00,
2013-03-03 05:50:00,35.5,33.7,30.26,SSE,159,0.0,0.0,93,0.00,,---,0.00,VWS V14.01,2013-03-03 13:50:00,
2013-03-03 05:53:00,36.4,34.6,30.26,SE,124,2.0,2.0,93,0.00,,---,0.00,VWS V14.01,2013-03-03 13:53:00,
2013-03-03 05:55:00,35.4,33.6,30.26,SSE,159,0.0,0.0,93,0.00,,---,0.00,VWS V14.01,2013-03-03 13:55:00,
2013-03-03 05:58:00,36.3,34.5,30.26,SE,144,1.0,3.0,93,0.00,,---,0.00,VWS V14.01,2013-03-03 13:58:00,
2013-03-03 06:00:00,35.5,33.7,30.26,ESE,117,0.0,0.0,93,0.00,,---,0.00,VWS V14.01,2013-03-03 14:00:00,
2013-03-03 06:03:00,36.3,34.5,30.25,SE,141,0.0,4.0,93,0.00,,---,0.00,VWS V14.01,2013-03-03 14:03:00,
2013-03-03 06:05:00,35.4,33.6,30.26,SSE,166,0.0,1.0,93,0.00,,---,0.00,VWS V14.01,2013-03-03 14:05:00,
2013-03-03 06:08:00,36.3,34.5,30.26,South,171,1.0,5.0,93,0.00,,---,0.00,VWS V14.01,2013-03-03 14:08:00,
2013-03-03 06:10:00,35.2,33.7,30.26,SSW,208,0.0,0.0,94,0.00,,---,0.00,VWS V14.01,2013-03-03 14:10:00,
2013-03-03 06:13:00,36.4,34.3,30.26,SE,135,1.0,2.0,92,0.00,,---,0.00,VWS V14.01,2013-03-03 14:13:00,
2013-03-03 06:15:00,35.0,33.5,30.26,NNE,33,0.0,1.0,94,0.00,,---,0.00,VWS V14.01,2013-03-03 14:15:00,
2013-03-03 06:18:00,36.3,34.2,30.26,SSE,148,1.0,3.0,92,0.00,,---,0.00,VWS V14.01,2013-03-03 14:18:00,
2013-03-03 06:20:00,35.2,33.7,30.26,ESE,115,1.0,2.0,94,0.00,,---,0.00,VWS V14.01,2013-03-03 14:20:00,
2013-03-03 06:23:00,36.2,34.1,30.26,SE,141,1.0,1.0,92,0.00,,---,0.00,VWS V14.01,2013-03-03 14:23:00,
2013-03-03 06:25:00,35.5,34.0,30.26,SE,136,0.0,1.0,94,0.00,,---,0.00,VWS V14.01,2013-03-03 14:25:00,
2013-03-03 06:28:00,35.9,33.8,30.26,SE,141,0.0,0.0,92,0.00,,---,0.00,VWS V14.01,2013-03-03 14:28:00,
2013-03-03 06:30:00,35.5,34.0,30.26,SE,136,0.0,0.0,94,0.00,,---,0.00,VWS V14.01,2013-03-03 14:30:00,
2013-03-03 06:33:00,35.6,33.8,30.26,SE,139,1.0,2.0,93,0.00,,---,0.00,VWS V14.01,2013-03-03 14:33:00,
2013-03-03 06:35:00,35.4,33.8,30.26,NW,324,1.0,2.0,94,0.00,,---,0.00,VWS V14.01,2013-03-03 14:35:00,
2013-03-03 06:38:00,35.7,33.9,30.26,ESE,115,0.0,2.0,93,0.00,,---,0.00,VWS V14.01,2013-03-03 14:38:00,
2013-03-03 06:40:00,35.5,34.0,30.26,NW,323,0.0,1.0,94,0.00,,---,0.00,VWS V14.01,2013-03-03 14:40:00,
2013-03-03 06:43:00,35.7,33.9,30.26,SSE,163,0.0,1.0,93,0.00,,---,0.00,VWS V14.01,2013-03-03 14:43:00,
2013-03-03 06:45:00,35.8,34.0,30.26,SW,229,0.0,1.0,93,0.00,,---,0.00,VWS V14.01,2013-03-03 14:45:00,
2013-03-03 06:48:00,35.6,33.8,30.26,SSE,159,0.0,0.0,93,0.00,,---,0.00,VWS V14.01,2013-03-03 14:48:00,
2013-03-03 06:50:00,36.1,34.3,30.26,SW,226,1.0,2.0,93,0.00,,---,0.00,VWS V14.01,2013-03-03 14:50:00,
2013-03-03 06:53:00,35.5,33.7,30.26,SSE,159,0.0,0.0,93,0.00,,---,0.00,VWS V14.01,2013-03-03 14:53:00,
2013-03-03 06:55:00,36.5,34.4,30.26,SW,227,0.0,1.0,92,0.00,,---,0.00,VWS V14.01,2013-03-03 14:55:00,
2013-03-03 06:58:00,35.5,34.0,30.26,SSE,159,0.0,0.0,94,0.00,,---,0.00,VWS V14.01,2013-03-03 14:58:00,
2013-03-03 07:00:00,36.9,34.8,30.26,SW,227,0.0,0.0,92,0.00,,---,0.00,VWS V14.01,2013-03-03 15:00:00,
2013-03-03 07:02:00,35.4,33.6,30.26,ESE,117,1.0,1.0,93,0.00,,---,0.00,VWS V14.01,2013-03-03 15:02:00,
2013-03-03 07:05:00,37.3,35.2,30.27,SW,227,0.0,0.0,92,0.00,,---,0.00,VWS V14.01,2013-03-03 15:05:00,
2013-03-03 07:07:00,35.3,33.8,30.26,SSE,166,0.0,0.0,94,0.00,,---,0.00,VWS V14.01,2013-03-03 15:07:00,
2013-03-03 07:10:00,38.0,35.3,30.27,SW,227,0.0,0.0,90,0.00,,---,0.00,VWS V14.01,2013-03-03 15:10:00,
2013-03-03 07:13:00,35.1,33.5,30.26,SSW,208,0.0,0.0,94,0.00,,---,0.00,VWS V14.01,2013-03-03 15:13:00,
2013-03-03 07:15:00,37.9,35.0,30.27,WNW,296,1.0,1.0,89,0.00,,---,0.00,VWS V14.01,2013-03-03 15:15:00,
2013-03-03 07:18:00,35.0,33.5,30.26,ESE,102,2.0,2.0,94,0.00,,---,0.00,VWS V14.01,2013-03-03 15:18:00,
2013-03-03 07:20:00,38.1,35.4,30.28,WNW,296,0.0,1.0,90,0.00,,---,0.00,VWS V14.01,2013-03-03 15:20:00,
2013-03-03 07:22:00,35.3,33.8,30.26,SSE,153,0.0,1.0,94,0.00,,---,0.00,VWS V14.01,2013-03-03 15:22:00,
2013-03-03 07:25:00,39.0,36.0,30.28,WNW,295,0.0,0.0,89,0.00,,---,0.00,VWS V14.01,2013-03-03 15:25:00,
2013-03-03 07:27:00,35.5,34.0,30.26,SE,136,0.0,0.0,94,0.00,,---,0.00,VWS V14.01,2013-03-03 15:27:00,
2013-03-03 07:30:00,39.9,36.6,30.28,WNW,295,0.0,0.0,88,0.00,,---,0.00,VWS V14.01,2013-03-03 15:30:00,
2013-03-03 07:33:00,35.4,33.8,30.26,North,7,0.0,0.0,94,0.00,,---,0.00,VWS V14.01,2013-03-03 15:33:00,
2013-03-03 07:35:00,39.7,35.9,30.28,SW,227,0.0,2.0,86,0.00,,---,0.00,VWS V14.01,2013-03-03 15:35:00,
2013-03-03 07:38:00,35.4,33.8,30.26,NW,324,0.0,1.0,94,0.00,,---,0.00,VWS V14.01,2013-03-03 15:38:00,
2013-03-03 07:40:00,39.4,36.2,30.28,SSW,213,0.0,3.0,88,0.00,,---,0.00,VWS V14.01,2013-03-03 15:40:00,
2013-03-03 07:43:00,35.7,34.2,30.26,SW,229,0.0,1.0,94,0.00,,---,0.00,VWS V14.01,2013-03-03 15:43:00,
2013-03-03 07:45:00,39.9,36.1,30.27,South,180,3.0,3.0,86,0.00,,---,0.00,VWS V14.01,2013-03-03 15:45:00,
2013-03-03 07:48:00,35.9,34.1,30.26,SW,229,0.0,1.0,93,0.00,,---,0.00,VWS V14.01,2013-03-03 15:48:00,
2013-03-03 07:50:00,40.3,36.5,30.27,SSE,151,1.0,3.0,86,0.00,,---,0.00,VWS V14.01,2013-03-03 15:50:00,
2013-03-03 07:53:00,36.3,34.5,30.26,SW,227,0.0,1.0,93,0.00,,---,0.00,VWS V14.01,2013-03-03 15:53:00,
2013-03-03 07:55:00,40.6,36.2,30.27,SSE,151,0.0,4.0,84,0.00,,---,0.00,VWS V14.01,2013-03-03 15:55:00,
2013-03-03 07:58:00,36.6,34.5,30.26,SW,227,0.0,0.0,92,0.00,,---,0.00,VWS V14.01,2013-03-03 15:58:00,
2013-03-03 08:00:00,41.1,36.6,30.27,South,171,0.0,3.0,84,0.00,,---,0.00,VWS V14.01,2013-03-03 16:00:00,
2013-03-03 08:03:00,37.0,34.9,30.27,SW,227,0.0,0.0,92,0.00,,---,0.00,VWS V14.01,2013-03-03 16:03:00,
2013-03-03 08:05:00,41.2,36.4,30.27,SE,131,0.0,3.0,83,0.00,,---,0.00,VWS V14.01,2013-03-03 16:05:00,
2013-03-03 08:08:00,37.6,35.2,30.27,SW,227,0.0,0.0,91,0.00,,---,0.00,VWS V14.01,2013-03-03 16:08:00,
2013-03-03 08:10:00,41.3,36.8,30.27,SSE,155,0.0,3.0,84,0.00,,---,0.00,VWS V14.01,2013-03-03 16:10:00,
2013-03-03 08:13:00,38.1,35.2,30.27,WNW,296,1.0,1.0,89,0.00,,---,0.00,VWS V14.01,2013-03-03 16:13:00,
2013-03-03 08:15:00,41.6,36.5,30.27,SSE,148,1.0,4.0,82,0.00,,---,0.00,VWS V14.01,2013-03-03 16:15:00,
2013-03-03 08:18:00,37.9,35.2,30.27,WNW,296,0.0,1.0,90,0.00,,---,0.00,VWS V14.01,2013-03-03 16:18:00,
2013-03-03 08:20:00,41.8,37.3,30.27,SSE,165,0.0,2.0,84,0.00,,---,0.00,VWS V14.01,2013-03-03 16:20:00,
2013-03-03 08:23:00,38.4,36.0,30.27,WNW,296,0.0,0.0,91,0.00,,---,0.00,VWS V14.01,2013-03-03 16:23:00,
2013-03-03 08:25:00,41.9,37.1,30.27,SE,140,0.0,2.0,83,0.00,,---,0.00,VWS V14.01,2013-03-03 16:25:00,
2013-03-03 08:28:00,39.4,36.2,30.28,WNW,295,0.0,0.0,88,0.00,,---,0.00,VWS V14.01,2013-03-03 16:28:00,
2013-03-03 08:30:00,42.1,37.0,30.27,SSE,152,1.0,2.0,82,0.00,,---,0.00,VWS V14.01,2013-03-03 16:30:00,
2013-03-03 08:33:00,39.9,36.3,30.28,WNW,295,0.0,0.0,87,0.00,,---,0.00,VWS V14.01,2013-03-03 16:33:00,
2013-03-03 08:35:00,42.4,37.3,30.27,SSE,162,0.0,2.0,82,0.00,,---,0.00,VWS V14.01,2013-03-03 16:35:00,
2013-03-03 08:38:00,39.5,36.0,30.28,SW,227,0.0,3.0,87,0.00,,---,0.00,VWS V14.01,2013-03-03 16:38:00,
2013-03-03 08:40:00,42.5,37.1,30.27,SE,137,1.0,2.0,81,0.00,,---,0.00,VWS V14.01,2013-03-03 16:40:00,
2013-03-03 08:43:00,39.6,36.3,30.28,SSW,213,0.0,0.0,88,0.00,,---,0.00,VWS V14.01,2013-03-03 16:43:00,
2013-03-03 08:45:00,42.5,37.1,30.27,WSW,257,1.0,4.0,81,0.00,,---,0.00,VWS V14.01,2013-03-03 16:45:00,
2013-03-03 08:48:00,40.1,36.3,30.28,SSE,164,0.0,3.0,86,0.00,,---,0.00,VWS V14.01,2013-03-03 16:48:00,
2013-03-03 08:50:00,42.4,37.0,30.27,SSW,212,3.0,3.0,81,0.00,,---,0.00,VWS V14.01,2013-03-03 16:50:00,
2013-03-03 08:52:00,40.4,36.5,30.27,South,172,2.0,3.0,86,0.00,,---,0.00,VWS V14.01,2013-03-03 16:52:00,
2013-03-03 08:55:00,42.4,36.7,30.27,WSW,257,3.0,5.0,80,0.00,,---,0.00,VWS V14.01,2013-03-03 16:55:00,
2013-03-03 08:57:00,40.8,36.7,30.27,SSE,156,1.0,1.0,85,0.00,,---,0.00,VWS V14.01,2013-03-03 16:57:00,
2013-03-03 09:00:00,42.3,36.3,30.27,SW,224,4.0,6.0,79,0.00,,---,0.00,VWS V14.01,2013-03-03 17:00:00,
2013-03-03 09:02:00,41.2,36.4,30.27,South,191,0.0,3.0,83,0.00,,---,0.00,VWS V14.01,2013-03-03 17:02:00,
2013-03-03 09:05:00,42.5,36.8,30.27,WSW,248,5.0,5.0,80,0.00,,---,0.00,VWS V14.01,2013-03-03 17:05:00,
2013-03-03 09:07:00,41.2,36.7,30.27,SSE,163,0.0,1.0,84,0.00,,---,0.00,VWS V14.01,2013-03-03 17:07:00,
2013-03-03 09:10:00,42.8,36.8,30.27,WSW,248,2.0,5.0,79,0.00,,---,0.00,VWS V14.01,2013-03-03 17:10:00,
2013-03-03 09:12:00,41.4,36.6,30.27,South,170,0.0,3.0,83,0.00,,---,0.00,VWS V14.01,2013-03-03 17:12:00,
2013-03-03 09:15:00,42.9,36.2,30.27,WSW,245,3.0,6.0,77,0.00,,---,0.00,VWS V14.01,2013-03-03 17:15:00,
2013-03-03 09:17:00,41.7,36.9,30.27,SSE,154,0.0,2.0,83,0.00,,---,0.00,VWS V14.01,2013-03-03 17:17:00,
2013-03-03 09:20:00,43.1,37.0,30.27,WSW,252,0.0,4.0,79,0.00,,---,0.00,VWS V14.01,2013-03-03 17:20:00,
2013-03-03 09:22:00,41.8,36.7,30.27,SE,143,0.0,2.0,82,0.00,,---,0.00,VWS V14.01,2013-03-03 17:22:00,
2013-03-03 09:25:00,43.5,37.8,30.27,WSW,241,1.0,3.0,80,0.00,,---,0.00,VWS V14.01,2013-03-03 17:25:00,
2013-03-03 09:27:00,41.9,37.1,30.27,SSE,155,2.0,2.0,83,0.00,,---,0.00,VWS V14.01,2013-03-03 17:27:00,
2013-03-03 09:30:00,43.6,37.2,30.27,NW,322,3.0,4.0,78,0.00,,---,0.00,VWS V14.01,2013-03-03 17:30:00,
2013-03-03 09:32:00,42.2,37.1,30.27,South,176,0.0,2.0,82,0.00,,---,0.00,VWS V14.01,2013-03-03 17:32:00,
2013-03-03 09:35:00,43.8,37.4,30.27,WSW,238,6.0,6.0,78,0.00,,---,0.00,VWS V14.01,2013-03-03 17:35:00,
2013-03-03 09:37:00,42.5,37.1,30.27,West,265,1.0,2.0,81,0.00,,---,0.00,VWS V14.01,2013-03-03 17:37:00,
2013-03-03 09:40:00,43.5,37.8,30.27,West,271,2.0,8.0,80,0.00,,---,0.00,VWS V14.01,2013-03-03 17:40:00,
2013-03-03 09:42:00,42.5,37.4,30.27,SW,231,0.0,2.0,82,0.00,,---,0.00,VWS V14.01,2013-03-03 17:42:00,
2013-03-03 09:45:00,43.9,37.5,30.27,WSW,257,1.0,3.0,78,0.00,,---,0.00,VWS V14.01,2013-03-03 17:45:00,
2013-03-03 09:47:00,42.5,37.4,30.27,WNW,283,1.0,3.0,82,0.00,,---,0.00,VWS V14.01,2013-03-03 17:47:00,
2013-03-03 09:50:00,43.8,37.4,30.27,SSW,212,1.0,6.0,78,0.00,,---,0.00,VWS V14.01,2013-03-03 17:50:00,
2013-03-03 09:52:00,42.4,37.3,30.27,WSW,258,0.0,4.0,82,0.00,,---,0.00,VWS V14.01,2013-03-03 17:52:00,
2013-03-03 09:55:00,44.2,37.8,30.27,SE,128,2.0,5.0,78,0.00,,---,0.00,VWS V14.01,2013-03-03 17:55:00,
2013-03-03 09:57:00,42.3,36.3,30.27,SW,235,2.0,5.0,79,0.00,,---,0.00,VWS V14.01,2013-03-03 17:57:00,
2013-03-03 10:00:00,44.3,37.6,30.27,SW,215,1.0,5.0,77,0.00,,---,0.00,VWS V14.01,2013-03-03 18:00:00,
2013-03-03 10:02:00,42.3,36.3,30.27,SW,236,2.0,4.0,79,0.00,,---,0.00,VWS V14.01,2013-03-03 18:02:00,
2013-03-03 10:05:00,44.1,36.7,30.26,SW,214,0.0,6.0,75,0.00,,---,0.00,VWS V14.01,2013-03-03 18:05:00,
2013-03-03 10:07:00,42.5,37.1,30.27,West,276,1.0,5.0,81,0.00,,---,0.00,VWS V14.01,2013-03-03 18:07:00,
2013-03-03 10:10:00,44.2,37.1,30.26,WNW,290,1.0,4.0,76,0.00,,---,0.00,VWS V14.01,2013-03-03 18:10:00,
2013-03-03 10:12:00,42.8,36.8,30.27,West,274,1.0,3.0,79,0.00,,---,0.00,VWS V14.01,2013-03-03 18:12:00,
2013-03-03 10:15:00,44.0,35.9,30.26,NE,48,2.0,5.0,73,0.00,,---,0.00,VWS V14.01,2013-03-03 18:15:00,
2013-03-03 10:17:00,42.9,36.8,30.27,WSW,242,2.0,4.0,79,0.00,,---,0.00,VWS V14.01,2013-03-03 18:17:00,
2013-03-03 10:20:00,44.6,37.5,30.26,SE,139,0.0,3.0,76,0.00,,---,0.00,VWS V14.01,2013-03-03 18:20:00,
2013-03-03 10:22:00,43.2,37.5,30.27,SW,226,0.0,3.0,80,0.00,,---,0.00,VWS V14.01,2013-03-03 18:22:00,
2013-03-03 10:25:00,45.2,36.7,30.26,West,274,3.0,6.0,72,0.00,,---,0.00,VWS V14.01,2013-03-03 18:25:00,
2013-03-03 10:27:00,43.5,37.1,30.27,SW,225,2.0,4.0,78,0.00,,---,0.00,VWS V14.01,2013-03-03 18:27:00,
2013-03-03 10:30:00,45.0,34.7,30.26,SSW,205,2.0,6.0,67,0.00,,---,0.00,VWS V14.01,2013-03-03 18:30:00,
2013-03-03 10:32:00,43.5,37.1,30.27,SSW,200,0.0,3.0,78,0.00,,---,0.00,VWS V14.01,2013-03-03 18:32:00,
2013-03-03 10:35:00,45.1,35.5,30.26,WNW,285,1.0,7.0,69,0.00,,---,0.00,VWS V14.01,2013-03-03 18:35:00,
2013-03-03 10:37:00,43.7,37.6,30.27,SW,236,2.0,8.0,79,0.00,,---,0.00,VWS V14.01,2013-03-03 18:37:00,
2013-03-03 10:40:00,45.4,36.2,30.27,WNW,284,3.0,8.0,70,0.00,,---,0.00,VWS V14.01,2013-03-03 18:40:00,
2013-03-03 10:42:00,43.6,38.2,30.27,WSW,255,1.0,3.0,81,0.00,,---,0.00,VWS V14.01,2013-03-03 18:42:00,
2013-03-03 10:45:00,45.4,36.9,30.27,SW,222,3.0,5.0,72,0.00,,---,0.00,VWS V14.01,2013-03-03 18:45:00,
2013-03-03 10:47:00,43.9,37.5,30.27,WSW,248,5.0,6.0,78,0.00,,---,0.00,VWS V14.01,2013-03-03 18:47:00,
2013-03-03 10:50:00,45.8,37.3,30.27,SW,226,0.0,3.0,72,0.00,,---,0.00,VWS V14.01,2013-03-03 18:50:00,
2013-03-03 10:52:00,44.0,37.3,30.26,South,190,2.0,3.0,77,0.00,,---,0.00,VWS V14.01,2013-03-03 18:52:00,
2013-03-03 10:55:00,45.8,36.9,30.27,NNE,28,2.0,6.0,71,0.00,,---,0.00,VWS V14.01,2013-03-03 18:55:00,
2013-03-03 10:57:00,44.4,37.7,30.27,South,177,2.0,4.0,77,0.00,,---,0.00,VWS V14.01,2013-03-03 18:57:00,
2013-03-03 11:00:00,46.3,36.7,30.27,WNW,291,3.0,5.0,69,0.00,,---,0.00,VWS V14.01,2013-03-03 19:00:00,
2013-03-03 11:02:00,44.2,37.5,30.27,West,271,2.0,6.0,77,0.00,,---,0.00,VWS V14.01,2013-03-03 19:02:00,
2013-03-03 11:05:00,46.1,35.4,30.27,WNW,293,4.0,7.0,66,0.00,,---,0.00,VWS V14.01,2013-03-03 19:05:00,
2013-03-03 11:07:00,44.3,37.6,30.26,WNW,283,2.0,4.0,77,0.00,,---,0.00,VWS V14.01,2013-03-03 19:07:00,
2013-03-03 11:10:00,46.0,36.8,30.27,SW,217,2.0,8.0,70,0.00,,---,0.00,VWS V14.01,2013-03-03 19:10:00,
2013-03-03 11:12:00,44.2,36.8,30.27,NW,306,3.0,5.0,75,0.00,,---,0.00,VWS V14.01,2013-03-03 19:12:00,
2013-03-03 11:15:00,45.9,36.7,30.27,SSW,198,0.0,5.0,70,0.00,,---,0.00,VWS V14.01,2013-03-03 19:15:00,
2013-03-03 11:17:00,44.1,36.0,30.26,ENE,75,1.0,3.0,73,0.00,,---,0.00,VWS V14.01,2013-03-03 19:17:00,
2013-03-03 11:20:00,46.2,37.0,30.27,SW,214,1.0,5.0,70,0.00,,---,0.00,VWS V14.01,2013-03-03 19:20:00,
2013-03-03 11:22:00,45.0,36.9,30.26,WNW,290,1.0,1.0,73,0.00,,---,0.00,VWS V14.01,2013-03-03 19:22:00,
2013-03-03 11:25:00,46.0,36.0,30.27,SW,236,1.0,6.0,68,0.00,,---,0.00,VWS V14.01,2013-03-03 19:25:00,
2013-03-03 11:27:00,45.1,35.9,30.26,SW,229,4.0,4.0,70,0.00,,---,0.00,VWS V14.01,2013-03-03 19:27:00,
2013-03-03 11:30:00,46.6,36.6,30.27,SW,218,5.0,6.0,68,0.00,,---,0.00,VWS V14.01,2013-03-03 19:30:00,
2013-03-03 11:32:00,44.9,34.6,30.26,West,269,2.0,7.0,67,0.00,,---,0.00,VWS V14.01,2013-03-03 19:32:00,
2013-03-03 11:35:00,46.6,32.2,30.27,West,281,6.0,10.0,57,0.00,,---,0.00,VWS V14.01,2013-03-03 19:35:00,
2013-03-03 11:37:00,45.2,36.0,30.27,WSW,255,1.0,7.0,70,0.00,,---,0.00,VWS V14.01,2013-03-03 19:37:00,
2013-03-03 11:40:00,46.5,33.0,30.26,WNW,288,5.0,8.0,59,0.00,,---,0.00,VWS V14.01,2013-03-03 19:40:00,
2013-03-03 11:42:00,45.2,34.5,30.27,NNW,329,0.0,4.0,66,0.00,,---,0.00,VWS V14.01,2013-03-03 19:42:00,
2013-03-03 11:45:00,46.8,32.8,30.26,WNW,297,1.0,5.0,58,0.00,,---,0.00,VWS V14.01,2013-03-03 19:45:00,
2013-03-03 11:47:00,45.4,36.9,30.27,WNW,293,0.0,3.0,72,0.00,,---,0.00,VWS V14.01,2013-03-03 19:47:00,
2013-03-03 11:50:00,47.8,34.2,30.26,NW,305,1.0,7.0,59,0.00,,---,0.00,VWS V14.01,2013-03-03 19:50:00,
2013-03-03 11:52:00,45.8,37.0,30.27,SSW,210,3.0,6.0,71,0.00,,---,0.00,VWS V14.01,2013-03-03 19:52:00,
2013-03-03 11:55:00,49.4,34.8,30.26,NW,326,3.0,7.0,57,0.00,,---,0.00,VWS V14.01,2013-03-03 19:55:00,
2013-03-03 11:57:00,46.0,36.8,30.27,WSW,243,0.0,2.0,70,0.00,,---,0.00,VWS V14.01,2013-03-03 19:57:00,
2013-03-03 12:00:00,49.5,33.6,30.26,NW,321,3.0,7.0,54,0.00,,---,0.00,VWS V14.01,2013-03-03 20:00:00,
2013-03-03 12:02:00,46.1,35.8,30.27,NW,304,3.0,6.0,67,0.00,,---,0.00,VWS V14.01,2013-03-03 20:02:00,
2013-03-03 12:05:00,49.2,34.2,30.26,NNW,345,6.0,7.0,56,0.00,,---,0.00,VWS V14.01,2013-03-03 20:05:00,
2013-03-03 12:07:00,46.3,36.3,30.27,ESE,106,0.0,5.0,68,0.00,,---,0.00,VWS V14.01,2013-03-03 20:07:00,
2013-03-03 12:10:00,49.1,34.1,30.26,NE,40,2.0,10.0,56,0.00,,---,0.00,VWS V14.01,2013-03-03 20:10:00,
2013-03-03 12:12:00,45.9,36.7,30.27,NW,309,2.0,2.0,70,0.00,,---,0.00,VWS V14.01,2013-03-03 20:12:00,
2013-03-03 12:15:00,49.4,34.8,30.26,North,352,1.0,4.0,57,0.00,,---,0.00,VWS V14.01,2013-03-03 20:15:00,
2013-03-03 12:17:00,46.0,37.1,30.27,West,267,1.0,3.0,71,0.00,,---,0.00,VWS V14.01,2013-03-03 20:17:00,
2013-03-03 12:20:00,49.3,35.2,30.26,ESE,111,1.0,6.0,58,0.00,,---,0.00,VWS V14.01,2013-03-03 20:20:00,
2013-03-03 12:22:00,46.3,37.1,30.27,NW,319,5.0,6.0,70,0.00,,---,0.00,VWS V14.01,2013-03-03 20:22:00,
2013-03-03 12:25:00,49.8,34.3,30.26,NE,50,1.0,5.0,55,0.00,,---,0.00,VWS V14.01,2013-03-03 20:25:00,
2013-03-03 12:27:00,45.9,35.6,30.27,SSW,198,1.0,5.0,67,0.00,,---,0.00,VWS V14.01,2013-03-03 20:27:00,
2013-03-03 12:30:00,50.0,34.5,30.26,NNW,344,1.0,4.0,55,0.00,,---,0.00,VWS V14.01,2013-03-03 20:30:00,
2013-03-03 12:32:00,46.7,35.2,30.27,NW,311,8.0,9.0,64,0.00,,---,0.00,VWS V14.01,2013-03-03 20:32:00,
2013-03-03 12:35:00,49.6,32.7,30.26,NW,307,8.0,11.0,52,0.00,,---,0.00,VWS V14.01,2013-03-03 20:35:00,
2013-03-03 12:37:00,46.5,32.5,30.27,NW,309,4.0,8.0,58,0.00,,---,0.00,VWS V14.01,2013-03-03 20:37:00,
2013-03-03 12:40:00,48.4,33.4,30.26,NW,321,5.0,12.0,56,0.00,,---,0.00,VWS V14.01,2013-03-03 20:40:00,
2013-03-03 12:42:00,46.6,32.2,30.26,WNW,303,2.0,5.0,57,0.00,,---,0.00,VWS V14.01,2013-03-03 20:42:00,
2013-03-03 12:45:00,47.8,34.6,30.27,NNW,330,5.0,13.0,60,0.00,,---,0.00,VWS V14.01,2013-03-03 20:45:00,
2013-03-03 12:47:00,46.9,33.3,30.26,NNW,339,2.0,4.0,59,0.00,,---,0.00,VWS V14.01,2013-03-03 20:47:00,
2013-03-03 12:50:00,47.1,35.6,30.27,NW,315,9.0,12.0,64,0.00,,---,0.00,VWS V14.01,2013-03-03 20:50:00,
2013-03-03 12:52:00,48.3,34.7,30.26,NNW,334,1.0,3.0,59,0.00,,---,0.00,VWS V14.01,2013-03-03 20:52:00,
2013-03-03 12:55:00,45.8,36.2,30.27,NW,319,6.0,14.0,69,0.00,,---,0.00,VWS V14.01,2013-03-03 20:55:00,
2013-03-03 12:57:00,49.6,34.1,30.26,East,97,2.0,7.0,55,0.00,,---,0.00,VWS V14.01,2013-03-03 20:57:00,
2013-03-03 13:00:00,44.8,37.0,30.28,NW,310,6.0,9.0,74,0.00,,---,0.00,VWS V14.01,2013-03-03 21:00:00,
2013-03-03 13:02:00,49.4,33.9,30.26,East,94,2.0,5.0,55,0.00,,---,0.00,VWS V14.01,2013-03-03 21:02:00,
2013-03-03 13:05:00,44.6,37.5,30.27,West,266,0.0,8.0,76,0.00,,---,0.00,VWS V14.01,2013-03-03 21:05:00,
2013-03-03 13:07:00,48.9,34.3,30.26,ENE,65,0.0,10.0,57,0.00,,---,0.00,VWS V14.01,2013-03-03 21:07:00,
2013-03-03 13:10:00,45.5,36.7,30.27,NW,308,2.0,2.0,71,0.00,,---,0.00,VWS V14.01,2013-03-03 21:10:00,
2013-03-03 13:12:00,49.3,33.8,30.26,North,6,2.0,4.0,55,0.00,,---,0.00,VWS V14.01,2013-03-03 21:12:00,
2013-03-03 13:15:00,45.7,36.1,30.27,WNW,292,4.0,5.0,69,0.00,,---,0.00,VWS V14.01,2013-03-03 21:15:00,
2013-03-03 13:17:00,49.4,34.8,30.26,NNE,18,1.0,3.0,57,0.00,,---,0.00,VWS V14.01,2013-03-03 21:17:00,
2013-03-03 13:20:00,45.7,35.0,30.27,NW,326,2.0,5.0,66,0.00,,---,0.00,VWS V14.01,2013-03-03 21:20:00,
2013-03-03 13:22:00,49.5,34.9,30.26,NNW,327,2.0,3.0,57,0.00,,---,0.00,VWS V14.01,2013-03-03 21:22:00,
2013-03-03 13:25:00,46.2,35.9,30.27,North,350,1.0,4.0,67,0.00,,---,0.00,VWS V14.01,2013-03-03 21:25:00,
2013-03-03 13:27:00,49.9,35.3,30.26,NNW,335,3.0,3.0,57,0.00,,---,0.00,VWS V14.01,2013-03-03 21:27:00,
2013-03-03 13:30:00,47.1,35.2,30.27,NW,307,0.0,5.0,63,0.00,,---,0.00,VWS V14.01,2013-03-03 21:30:00,
2013-03-03 13:32:00,50.2,35.6,30.26,NW,304,4.0,4.0,57,0.00,,---,0.00,VWS V14.01,2013-03-03 21:32:00,
2013-03-03 13:35:00,47.5,35.2,30.27,ENE,71,2.0,4.0,62,0.00,,---,0.00,VWS V14.01,2013-03-03 21:35:00,
2013-03-03 13:37:00,49.1,32.2,30.26,WNW,301,6.0,8.0,52,0.00,,---,0.00,VWS V14.01,2013-03-03 21:37:00,
2013-03-03 13:40:00,47.6,33.1,30.27,ENE,59,2.0,7.0,57,0.00,,---,0.00,VWS V14.01,2013-03-03 21:40:00,
2013-03-03 13:42:00,48.2,34.6,30.26,NW,319,8.0,11.0,59,0.00,,---,0.00,VWS V14.01,2013-03-03 21:42:00,
2013-03-03 13:45:00,47.3,33.3,30.27,NNE,32,1.0,10.0,58,0.00,,---,0.00,VWS V14.01,2013-03-03 21:45:00,
2013-03-03 13:47:00,47.6,34.4,30.27,WNW,294,6.0,9.0,60,0.00,,---,0.00,VWS V14.01,2013-03-03 21:47:00,
2013-03-03 13:50:00,47.4,33.8,30.27,North,354,1.0,5.0,59,0.00,,---,0.00,VWS V14.01,2013-03-03 21:50:00,
2013-03-03 13:52:00,46.7,34.8,30.27,WNW,302,10.0,14.0,63,0.00,,---,0.00,VWS V14.01,2013-03-03 21:52:00,
2013-03-03 13:55:00,47.0,33.0,30.27,NNW,337,3.0,8.0,58,0.00,,---,0.00,VWS V14.01,2013-03-03 21:55:00,
2013-03-03 13:57:00,45.4,35.8,30.27,NW,311,3.0,9.0,69,0.00,,---,0.00,VWS V14.01,2013-03-03 21:57:00,
2013-03-03 14:00:00,47.2,34.0,30.27,North,353,1.0,6.0,60,0.00,,---,0.00,VWS V14.01,2013-03-03 22:00:00,
2013-03-03 14:02:00,44.7,36.2,30.28,ENE,58,0.0,8.0,72,0.00,,---,0.00,VWS V14.01,2013-03-03 22:02:00,
2013-03-03 14:05:00,47.2,33.2,30.28,NE,49,2.0,4.0,58,0.00,,---,0.00,VWS V14.01,2013-03-03 22:05:00,
2013-03-03 14:07:00,44.7,37.3,30.27,NE,44,1.0,1.0,75,0.00,,---,0.00,VWS V14.01,2013-03-03 22:07:00,
2013-03-03 14:10:00,47.1,33.5,30.28,WNW,300,0.0,4.0,59,0.00,,---,0.00,VWS V14.01,2013-03-03 22:10:00,
2013-03-03 14:12:00,45.6,37.5,30.27,NNW,330,1.0,2.0,73,0.00,,---,0.00,VWS V14.01,2013-03-03 22:12:00,
2013-03-03 14:15:00,46.8,32.8,30.28,NW,312,2.0,6.0,58,0.00,,---,0.00,VWS V14.01,2013-03-03 22:15:00,
2013-03-03 14:17:00,45.6,34.5,30.27,WNW,296,3.0,5.0,65,0.00,,---,0.00,VWS V14.01,2013-03-03 22:17:00,
2013-03-03 14:20:00,46.6,33.1,30.28,NW,307,2.0,7.0,59,0.00,,---,0.00,VWS V14.01,2013-03-03 22:20:00,
2013-03-03 14:22:00,45.8,35.1,30.27,WNW,303,4.0,4.0,66,0.00,,---,0.00,VWS V14.01,2013-03-03 22:22:00,
2013-03-03 14:25:00,47.1,33.5,30.28,WNW,295,3.0,4.0,59,0.00,,---,0.00,VWS V14.01,2013-03-03 22:25:00,
2013-03-03 14:27:00,46.5,36.5,30.27,NE,53,2.0,3.0,68,0.00,,---,0.00,VWS V14.01,2013-03-03 22:27:00,
2013-03-03 14:30:00,46.8,33.2,30.28,NW,310,2.0,5.0,59,0.00,,---,0.00,VWS V14.01,2013-03-03 22:30:00,
2013-03-03 14:32:00,47.1,34.8,30.27,North,2,0.0,3.0,62,0.00,,---,0.00,VWS V14.01,2013-03-03 22:32:00,
2013-03-03 14:35:00,46.7,32.3,30.28,NW,305,3.0,6.0,57,0.00,,---,0.00,VWS V14.01,2013-03-03 22:35:00,
2013-03-03 14:37:00,47.6,33.6,30.27,North,349,0.0,3.0,58,0.00,,---,0.00,VWS V14.01,2013-03-03 22:37:00,
2013-03-03 14:40:00,46.4,32.0,30.28,NW,310,3.0,6.0,57,0.00,,---,0.00,VWS V14.01,2013-03-03 22:40:00,
2013-03-03 14:42:00,47.6,33.1,30.27,NNW,333,3.0,7.0,57,0.00,,---,0.00,VWS V14.01,2013-03-03 22:42:00,
2013-03-03 14:45:00,46.4,32.4,30.28,NW,320,2.0,6.0,58,0.00,,---,0.00,VWS V14.01,2013-03-03 22:45:00,
2013-03-03 14:47:00,47.3,33.3,30.27,NNW,345,1.0,5.0,58,0.00,,---,0.00,VWS V14.01,2013-03-03 22:47:00,
2013-03-03 14:50:00,46.8,33.2,30.28,NW,308,6.0,6.0,59,0.00,,---,0.00,VWS V14.01,2013-03-03 22:50:00,
2013-03-03 14:52:00,47.3,33.3,30.27,NW,321,4.0,5.0,58,0.00,,---,0.00,VWS V14.01,2013-03-03 22:52:00,
2013-03-03 14:55:00,46.9,32.5,30.27,NW,314,2.0,10.0,57,0.00,,---,0.00,VWS V14.01,2013-03-03 22:55:00,
2013-03-03 14:57:00,46.9,33.3,30.27,NNE,30,0.0,5.0,59,0.00,,---,0.00,VWS V14.01,2013-03-03 22:57:00,
2013-03-03 15:00:00,47.3,32.8,30.28,ESE,104,0.0,8.0,57,0.00,,---,0.00,VWS V14.01,2013-03-03 23:00:00,
2013-03-03 15:02:00,47.3,33.7,30.27,NW,315,0.0,4.0,59,0.00,,---,0.00,VWS V14.01,2013-03-03 23:02:00,
2013-03-03 15:05:00,47.6,33.1,30.28,NW,316,2.0,5.0,57,0.00,,---,0.00,VWS V14.01,2013-03-03 23:05:00,
2013-03-03 15:07:00,47.2,33.2,30.28,NE,56,3.0,4.0,58,0.00,,---,0.00,VWS V14.01,2013-03-03 23:07:00,
2013-03-03 15:10:00,47.1,32.2,30.28,WNW,290,1.0,5.0,56,0.00,,---,0.00,VWS V14.01,2013-03-03 23:10:00,
2013-03-03 15:12:00,47.1,33.1,30.28,ENE,60,1.0,4.0,58,0.00,,---,0.00,VWS V14.01,2013-03-03 23:12:00,
2013-03-03 15:15:00,46.8,32.4,30.28,NW,314,3.0,3.0,57,0.00,,---,0.00,VWS V14.01,2013-03-03 23:15:00,
2013-03-03 15:17:00,46.7,33.2,30.28,NNW,335,2.0,2.0,59,0.00,,---,0.00,VWS V14.01,2013-03-03 23:17:00,
2013-03-03 15:20:00,46.8,32.4,30.27,NNW,340,0.0,6.0,57,0.00,,---,0.00,VWS V14.01,2013-03-03 23:20:00,
2013-03-03 15:22:00,46.6,32.6,30.28,West,273,0.0,3.0,58,0.00,,---,0.00,VWS V14.01,2013-03-03 23:22:00,
2013-03-03 15:25:00,46.9,30.7,30.27,North,10,0.0,4.0,53,0.00,,---,0.00,VWS V14.01,2013-03-03 23:25:00,
2013-03-03 15:27:00,47.0,33.4,30.28,WNW,297,3.0,5.0,59,0.00,,---,0.00,VWS V14.01,2013-03-03 23:27:00,
2013-03-03 15:30:00,46.9,31.1,30.28,NW,323,4.0,4.0,54,0.00,,---,0.00,VWS V14.01,2013-03-03 23:30:00,
2013-03-03 15:32:00,46.8,32.0,30.28,WNW,285,1.0,4.0,56,0.00,,---,0.00,VWS V14.01,2013-03-03 23:32:00,
2013-03-03 15:35:00,46.5,31.7,30.27,WNW,302,4.0,5.0,56,0.00,,---,0.00,VWS V14.01,2013-03-03 23:35:00,
2013-03-03 15:37:00,46.6,31.3,30.28,NW,312,5.0,6.0,55,0.00,,---,0.00,VWS V14.01,2013-03-03 23:37:00,
2013-03-03 15:40:00,46.2,31.8,30.28,NNW,329,5.0,5.0,57,0.00,,---,0.00,VWS V14.01,2013-03-03 23:40:00,
2013-03-03 15:42:00,46.3,31.9,30.28,NW,311,4.0,6.0,57,0.00,,---,0.00,VWS V14.01,2013-03-03 23:42:00,
2013-03-03 15:45:00,46.0,32.5,30.28,NNW,329,3.0,7.0,59,0.00,,---,0.00,VWS V14.01,2013-03-03 23:45:00,
2013-03-03 15:47:00,46.5,32.5,30.28,WNW,288,6.0,6.0,58,0.00,,---,0.00,VWS V14.01,2013-03-03 23:47:00,
2013-03-03 15:50:00,46.0,32.9,30.28,NNW,328,1.0,4.0,60,0.00,,---,0.00,VWS V14.01,2013-03-03 23:50:00,
2013-03-03 15:52:00,46.8,32.8,30.28,NW,307,7.0,7.0,58,0.00,,---,0.00,VWS V14.01,2013-03-03 23:52:00,
2013-03-03 15:55:00,46.0,33.3,30.28,NE,44,0.0,2.0,61,0.00,,---,0.00,VWS V14.01,2013-03-03 23:55:00,
2013-03-03 15:57:00,47.1,33.1,30.28,NW,319,5.0,8.0,58,0.00,,---,0.00,VWS V14.01,2013-03-03 23:57:00,
2013-03-03 16:00:00,46.0,33.7,30.28,NE,42,0.0,2.0,62,0.00,,---,0.00,VWS V14.01,2013-03-04 00:00:00,
2013-03-03 16:02:00,47.4,33.4,30.27,NNW,334,4.0,5.0,58,0.00,,---,0.00,VWS V14.01,2013-03-04 00:02:00,
2013-03-03 16:05:00,45.9,34.0,30.28,NNE,29,0.0,1.0,63,0.00,,---,0.00,VWS V14.01,2013-03-04 00:05:00,
2013-03-03 16:07:00,47.5,32.6,30.28,NW,310,3.0,5.0,56,0.00,,---,0.00,VWS V14.01,2013-03-04 00:07:00,
2013-03-03 16:10:00,45.7,34.2,30.28,NNE,17,0.0,1.0,64,0.00,,---,0.00,VWS V14.01,2013-03-04 00:10:00,
2013-03-03 16:12:00,46.9,32.5,30.28,WNW,283,1.0,2.0,57,0.00,,---,0.00,VWS V14.01,2013-03-04 00:12:00,
2013-03-03 16:15:00,45.6,34.5,30.28,NNE,20,0.0,2.0,65,0.00,,---,0.00,VWS V14.01,2013-03-04 00:15:00,
2013-03-03 16:17:00,46.9,32.9,30.27,NW,314,2.0,4.0,58,0.00,,---,0.00,VWS V14.01,2013-03-04 00:17:00,
2013-03-03 16:20:00,45.5,34.4,30.28,ESE,108,0.0,1.0,65,0.00,,---,0.00,VWS V14.01,2013-03-04 00:20:00,
2013-03-03 16:22:00,46.8,32.8,30.27,NW,325,0.0,1.0,58,0.00,,---,0.00,VWS V14.01,2013-03-04 00:22:00,
2013-03-03 16:25:00,45.4,34.7,30.28,ESE,103,0.0,0.0,66,0.00,,---,0.00,VWS V14.01,2013-03-04 00:25:00,
2013-03-03 16:27:00,46.9,31.1,30.27,NW,314,0.0,1.0,54,0.00,,---,0.00,VWS V14.01,2013-03-04 00:27:00,
2013-03-03 16:30:00,45.2,34.9,30.28,SSE,165,0.0,1.0,67,0.00,,---,0.00,VWS V14.01,2013-03-04 00:30:00,
2013-03-03 16:32:00,46.8,31.0,30.27,NE,41,1.0,5.0,54,0.00,,---,0.00,VWS V14.01,2013-03-04 00:32:00,
2013-03-03 16:35:00,44.9,35.4,30.28,SE,146,0.0,1.0,69,0.00,,---,0.00,VWS V14.01,2013-03-04 00:35:00,
2013-03-03 16:37:00,46.4,31.1,30.27,NW,305,4.0,4.0,55,0.00,,---,0.00,VWS V14.01,2013-03-04 00:37:00,
2013-03-03 16:40:00,44.9,35.7,30.28,East,98,0.0,1.0,70,0.00,,---,0.00,VWS V14.01,2013-03-04 00:40:00,
2013-03-03 16:42:00,46.1,31.7,30.28,NNW,335,3.0,7.0,57,0.00,,---,0.00,VWS V14.01,2013-03-04 00:42:00,
2013-03-03 16:45:00,44.9,36.1,30.29,ENE,76,0.0,2.0,71,0.00,,---,0.00,VWS V14.01,2013-03-04 00:45:00,
2013-03-03 16:47:00,46.0,32.9,30.28,NW,322,1.0,3.0,60,0.00,,---,0.00,VWS V14.01,2013-03-04 00:47:00,
2013-03-03 16:50:00,44.8,36.0,30.29,ENE,66,1.0,1.0,71,0.00,,---,0.00,VWS V14.01,2013-03-04 00:50:00,
2013-03-03 16:52:00,45.9,32.8,30.28,NNW,328,0.0,1.0,60,0.00,,---,0.00,VWS V14.01,2013-03-04 00:52:00,
2013-03-03 16:55:00,44.7,35.9,30.29,NNE,22,0.0,1.0,71,0.00,,---,0.00,VWS V14.01,2013-03-04 00:55:00,
2013-03-03 16:57:00,46.0,33.7,30.28,North,1,0.0,1.0,62,0.00,,---,0.00,VWS V14.01,2013-03-04 00:57:00,
2013-03-03 17:00:00,44.6,35.8,30.29,NNE,32,0.0,1.0,71,0.00,,---,0.00,VWS V14.01,2013-03-04 01:00:00,
2013-03-03 17:02:00,45.9,34.0,30.28,NE,40,1.0,1.0,63,0.00,,---,0.00,VWS V14.01,2013-03-04 01:02:00,
2013-03-03 17:05:00,44.4,35.6,30.29,ENE,70,1.0,1.0,71,0.00,,---,0.00,VWS V14.01,2013-03-04 01:05:00,
2013-03-03 17:07:00,45.9,34.0,30.28,NNE,28,0.0,1.0,63,0.00,,---,0.00,VWS V14.01,2013-03-04 01:07:00,
2013-03-03 17:10:00,44.3,35.9,30.29,ENE,69,0.0,1.0,72,0.00,,---,0.00,VWS V14.01,2013-03-04 01:10:00,
2013-03-03 17:12:00,45.7,34.2,30.28,NNE,20,0.0,2.0,64,0.00,,---,0.00,VWS V14.01,2013-03-04 01:12:00,
2013-03-03 17:15:00,44.1,36.0,30.29,ENE,71,0.0,1.0,73,0.00,,---,0.00,VWS V14.01,2013-03-04 01:15:00,
2013-03-03 17:17:00,45.6,34.5,30.28,ESE,108,1.0,1.0,65,0.00,,---,0.00,VWS V14.01,2013-03-04 01:17:00,
2013-03-03 17:20:00,43.9,35.8,30.29,ENE,71,0.0,1.0,73,0.00,,---,0.00,VWS V14.01,2013-03-04 01:20:00,
2013-03-03 17:22:00,45.5,34.8,30.28,ESE,103,0.0,0.0,66,0.00,,---,0.00,VWS V14.01,2013-03-04 01:22:00,
2013-03-03 17:25:00,43.7,36.0,30.29,ENE,71,0.0,0.0,74,0.00,,---,0.00,VWS V14.01,2013-03-04 01:25:00,
2013-03-03 17:27:00,45.3,34.6,30.28,ESE,103,0.0,0.0,66,0.00,,---,0.00,VWS V14.01,2013-03-04 01:27:00,
2013-03-03 17:30:00,43.5,35.8,30.29,ENE,71,0.0,0.0,74,0.00,,---,0.00,VWS V14.01,2013-03-04 01:30:00,
2013-03-03 17:32:00,45.0,34.7,30.28,SSE,165,0.0,0.0,67,0.00,,---,0.00,VWS V14.01,2013-03-04 01:32:00,
2013-03-03 17:35:00,43.4,36.0,30.29,East,96,1.0,1.0,75,0.00,,---,0.00,VWS V14.01,2013-03-04 01:35:00,
2013-03-03 17:37:00,44.9,35.4,30.28,East,100,1.0,1.0,69,0.00,,---,0.00,VWS V14.01,2013-03-04 01:37:00,
2013-03-03 17:40:00,43.3,35.9,30.29,East,95,0.0,1.0,75,0.00,,---,0.00,VWS V14.01,2013-03-04 01:40:00,
2013-03-03 17:42:00,44.9,35.7,30.28,ENE,62,1.0,2.0,70,0.00,,---,0.00,VWS V14.01,2013-03-04 01:42:00,
2013-03-03 17:45:00,43.2,35.8,30.29,East,98,0.0,1.0,75,0.00,,---,0.00,VWS V14.01,2013-03-04 01:45:00,
2013-03-03 17:47:00,44.8,36.0,30.28,ENE,77,0.0,0.0,71,0.00,,---,0.00,VWS V14.01,2013-03-04 01:47:00,
2013-03-03 17:50:00,43.0,36.0,30.29,East,98,1.0,1.0,76,0.00,,---,0.00,VWS V14.01,2013-03-04 01:50:00,
2013-03-03 17:52:00,44.8,36.0,30.29,East,89,0.0,1.0,71,0.00,,---,0.00,VWS V14.01,2013-03-04 01:52:00,
2013-03-03 17:55:00,42.8,36.1,30.29,East,98,0.0,1.0,77,0.00,,---,0.00,VWS V14.01,2013-03-04 01:55:00,
2013-03-03 17:57:00,44.7,35.9,30.29,NNE,22,0.0,0.0,71,0.00,,---,0.00,VWS V14.01,2013-03-04 01:57:00,
2013-03-03 18:00:00,42.6,35.9,30.29,East,98,0.0,0.0,77,0.00,,---,0.00,VWS V14.01,2013-03-04 02:00:00,
2013-03-03 18:02:00,44.5,35.7,30.29,ENE,70,0.0,0.0,71,0.00,,---,0.00,VWS V14.01,2013-03-04 02:02:00,
2013-03-03 18:05:00,42.4,36.0,30.29,East,98,0.0,0.0,78,0.00,,---,0.00,VWS V14.01,2013-03-04 02:05:00,
2013-03-03 18:07:00,44.4,35.6,30.29,ENE,70,0.0,1.0,71,0.00,,---,0.00,VWS V14.01,2013-03-04 02:07:00,
2013-03-03 18:10:00,42.2,36.2,30.29,East,98,0.0,0.0,79,0.00,,---,0.00,VWS V14.01,2013-03-04 02:10:00,
2013-03-03 18:12:00,44.3,35.9,30.29,ENE,70,0.0,1.0,72,0.00,,---,0.00,VWS V14.01,2013-03-04 02:12:00,
2013-03-03 18:15:00,42.1,36.1,30.30,East,98,0.0,0.0,79,0.00,,---,0.00,VWS V14.01,2013-03-04 02:15:00,
2013-03-03 18:17:00,44.1,36.0,30.29,ENE,71,0.0,0.0,73,0.00,,---,0.00,VWS V14.01,2013-03-04 02:17:00,
2013-03-03 18:20:00,42.0,35.7,30.30,East,98,0.0,0.0,78,0.00,,---,0.00,VWS V14.01,2013-03-04 02:20:00,
2013-03-03 18:22:00,43.9,35.8,30.29,ENE,71,0.0,0.0,73,0.00,,---,0.00,VWS V14.01,2013-03-04 02:22:00,
2013-03-03 18:25:00,42.3,35.6,30.30,East,98,0.0,0.0,77,0.00,,---,0.00,VWS V14.01,2013-03-04 02:25:00,
2013-03-03 18:27:00,43.6,35.9,30.29,ENE,71,0.0,0.0,74,0.00,,---,0.00,VWS V14.01,2013-03-04 02:27:00,
2013-03-03 18:30:00,42.3,35.9,30.30,East,98,0.0,0.0,78,0.00,,---,0.00,VWS V14.01,2013-03-04 02:30:00,
2013-03-03 18:32:00,43.5,35.8,30.29,ENE,71,0.0,0.0,74,0.00,,---,0.00,VWS V14.01,2013-03-04 02:32:00,
2013-03-03 18:35:00,42.0,36.0,30.30,East,98,0.0,0.0,79,0.00,,---,0.00,VWS V14.01,2013-03-04 02:35:00,
2013-03-03 18:37:00,43.3,35.6,30.29,East,95,0.0,1.0,74,0.00,,---,0.00,VWS V14.01,2013-03-04 02:37:00,
2013-03-03 18:40:00,42.0,35.7,30.30,East,98,0.0,1.0,78,0.00,,---,0.00,VWS V14.01,2013-03-04 02:40:00,
2013-03-03 18:42:00,43.2,35.8,30.29,East,95,0.0,0.0,75,0.00,,---,0.00,VWS V14.01,2013-03-04 02:42:00,
2013-03-03 18:45:00,42.0,35.7,30.30,East,94,0.0,2.0,78,0.00,,---,0.00,VWS V14.01,2013-03-04 02:45:00,
2013-03-03 18:47:00,43.1,35.7,30.29,East,98,0.0,1.0,75,0.00,,---,0.00,VWS V14.01,2013-03-04 02:47:00,
2013-03-03 18:50:00,42.0,35.7,30.30,East,94,0.0,1.0,78,0.00,,---,0.00,VWS V14.01,2013-03-04 02:50:00,
2013-03-03 18:52:00,42.9,36.2,30.29,East,98,1.0,1.0,77,0.00,,---,0.00,VWS V14.01,2013-03-04 02:52:00,
2013-03-03 18:55:00,41.9,35.5,30.30,East,92,0.0,1.0,78,0.00,,---,0.00,VWS V14.01,2013-03-04 02:55:00,
2013-03-03 18:57:00,42.8,36.1,30.30,East,98,0.0,0.0,77,0.00,,---,0.00,VWS V14.01,2013-03-04 02:57:00,
2013-03-03 19:00:00,41.7,35.7,30.30,East,86,0.0,1.0,79,0.00,,---,0.00,VWS V14.01,2013-03-04 03:00:00,
2013-03-03 19:02:00,42.5,35.8,30.29,East,98,0.0,0.0,77,0.00,,---,0.00,VWS V14.01,2013-03-04 03:02:00,
2013-03-03 19:05:00,41.7,35.7,30.29,East,86,1.0,1.0,79,0.00,,---,0.00,VWS V14.01,2013-03-04 03:05:00,
2013-03-03 19:07:00,42.4,36.0,30.29,East,98,0.0,0.0,78,0.00,,---,0.00,VWS V14.01,2013-03-04 03:07:00,
2013-03-03 19:10:00,41.5,35.5,30.29,East,86,0.0,1.0,79,0.00,,---,0.00,VWS V14.01,2013-03-04 03:10:00,
2013-03-03 19:12:00,42.2,36.2,30.29,East,98,0.0,0.0,79,0.00,,---,0.00,VWS V14.01,2013-03-04 03:12:00,
2013-03-03 19:15:00,41.4,35.4,30.29,East,89,1.0,1.0,79,0.00,,---,0.00,VWS V14.01,2013-03-04 03:15:00,
2013-03-03 19:17:00,42.1,36.1,30.29,East,98,0.0,0.0,79,0.00,,---,0.00,VWS V14.01,2013-03-04 03:17:00,
2013-03-03 19:20:00,41.3,35.6,30.29,East,88,0.0,1.0,80,0.00,,---,0.00,VWS V14.01,2013-03-04 03:20:00,
2013-03-03 19:22:00,42.0,35.7,30.30,East,98,0.0,0.0,78,0.00,,---,0.00,VWS V14.01,2013-03-04 03:22:00,
2013-03-03 19:25:00,41.1,35.4,30.29,East,88,0.0,1.0,80,0.00,,---,0.00,VWS V14.01,2013-03-04 03:25:00,
2013-03-03 19:27:00,42.3,35.6,30.30,East,98,0.0,0.0,77,0.00,,---,0.00,VWS V14.01,2013-03-04 03:27:00,
2013-03-03 19:30:00,41.1,35.4,30.29,East,85,0.0,2.0,80,0.00,,---,0.00,VWS V14.01,2013-03-04 03:30:00,
2013-03-03 19:32:00,42.2,35.8,30.30,East,98,0.0,0.0,78,0.00,,---,0.00,VWS V14.01,2013-03-04 03:32:00,
2013-03-03 19:35:00,41.1,35.4,30.29,ENE,68,0.0,1.0,80,0.00,,---,0.00,VWS V14.01,2013-03-04 03:35:00,
2013-03-03 19:37:00,42.0,35.7,30.30,East,98,1.0,1.0,78,0.00,,---,0.00,VWS V14.01,2013-03-04 03:37:00,
2013-03-03 19:40:00,41.1,35.1,30.29,ENE,67,1.0,1.0,79,0.00,,---,0.00,VWS V14.01,2013-03-04 03:40:00,
2013-03-03 19:42:00,42.0,35.7,30.30,East,94,1.0,2.0,78,0.00,,---,0.00,VWS V14.01,2013-03-04 03:42:00,
2013-03-03 19:45:00,41.1,35.1,30.29,ENE,63,0.0,1.0,79,0.00,,---,0.00,VWS V14.01,2013-03-04 03:45:00,
2013-03-03 19:47:00,42.0,35.7,30.30,East,94,0.0,1.0,78,0.00,,---,0.00,VWS V14.01,2013-03-04 03:47:00,
2013-03-03 19:50:00,41.1,35.1,30.29,East,88,1.0,2.0,79,0.00,,---,0.00,VWS V14.01,2013-03-04 03:50:00,
2013-03-03 19:52:00,42.0,35.7,30.30,East,94,1.0,1.0,78,0.00,,---,0.00,VWS V14.01,2013-03-04 03:52:00,
2013-03-03 19:55:00,41.1,35.1,30.29,East,86,0.0,1.0,79,0.00,,---,0.00,VWS V14.01,2013-03-04 03:55:00,
2013-03-03 19:57:00,41.9,35.5,30.29,East,92,1.0,1.0,78,0.00,,---,0.00,VWS V14.01,2013-03-04 03:57:00,
2013-03-03 20:00:00,40.9,34.9,30.29,NNE,26,0.0,1.0,79,0.00,,---,0.00,VWS V14.01,2013-03-04 04:00:00,
2013-03-03 20:02:00,41.7,35.7,30.30,East,86,1.0,1.0,79,0.00,,---,0.00,VWS V14.01,2013-03-04 04:02:00,
2013-03-03 20:05:00,40.7,34.7,30.29,North,9,0.0,1.0,79,0.00,,---,0.00,VWS V14.01,2013-03-04 04:05:00,
2013-03-03 20:07:00,41.6,35.6,30.29,East,86,0.0,1.0,79,0.00,,---,0.00,VWS V14.01,2013-03-04 04:07:00,
2013-03-03 20:10:00,40.6,34.9,30.30,NE,47,0.0,1.0,80,0.00,,---,0.00,VWS V14.01,2013-03-04 04:10:00,
2013-03-03 20:12:00,41.4,35.4,30.29,East,86,1.0,1.0,79,0.00,,---,0.00,VWS V14.01,2013-03-04 04:12:00,
2013-03-03 20:15:00,40.5,34.8,30.30,ENE,63,0.0,1.0,80,0.00,,---,0.00,VWS V14.01,2013-03-04 04:15:00,
2013-03-03 20:17:00,41.3,35.3,30.29,East,89,1.0,1.0,79,0.00,,---,0.00,VWS V14.01,2013-03-04 04:17:00,
2013-03-03 20:20:00,40.6,34.9,30.29,ENE,78,1.0,2.0,80,0.00,,---,0.00,VWS V14.01,2013-03-04 04:20:00,
2013-03-03 20:22:00,41.3,35.6,30.29,East,88,0.0,0.0,80,0.00,,---,0.00,VWS V14.01,2013-03-04 04:22:00,
2013-03-03 20:25:00,40.5,34.8,30.30,East,85,1.0,2.0,80,0.00,,---,0.00,VWS V14.01,2013-03-04 04:25:00,
2013-03-03 20:27:00,41.1,35.4,30.29,ENE,60,0.0,2.0,80,0.00,,---,0.00,VWS V14.01,2013-03-04 04:27:00,
2013-03-03 20:30:00,40.5,35.1,30.30,East,89,0.0,2.0,81,0.00,,---,0.00,VWS V14.01,2013-03-04 04:30:00,
2013-03-03 20:32:00,41.1,35.4,30.29,East,84,0.0,1.0,80,0.00,,---,0.00,VWS V14.01,2013-03-04 04:32:00,
2013-03-03 20:35:00,40.1,35.1,30.30,East,88,0.0,1.0,82,0.00,,---,0.00,VWS V14.01,2013-03-04 04:35:00,
2013-03-03 20:37:00,41.0,35.3,30.29,ENE,65,0.0,1.0,80,0.00,,---,0.00,VWS V14.01,2013-03-04 04:37:00,
2013-03-03 20:40:00,39.9,34.9,30.30,East,86,0.0,1.0,82,0.00,,---,0.00,VWS V14.01,2013-03-04 04:40:00,
2013-03-03 20:42:00,41.1,35.1,30.29,ENE,66,0.0,1.0,79,0.00,,---,0.00,VWS V14.01,2013-03-04 04:42:00,
2013-03-03 20:45:00,40.0,35.3,30.30,East,91,1.0,2.0,83,0.00,,---,0.00,VWS V14.01,2013-03-04 04:45:00,
2013-03-03 20:47:00,41.1,35.1,30.29,ENE,61,0.0,1.0,79,0.00,,---,0.00,VWS V14.01,2013-03-04 04:47:00,
2013-03-03 20:50:00,40.0,35.3,30.30,East,92,0.0,2.0,83,0.00,,---,0.00,VWS V14.01,2013-03-04 04:50:00,
2013-03-03 20:52:00,41.1,35.1,30.29,East,89,0.0,1.0,79,0.00,,---,0.00,VWS V14.01,2013-03-04 04:52:00,
2013-03-03 20:55:00,39.9,35.2,30.30,East,88,0.0,1.0,83,0.00,,---,0.00,VWS V14.01,2013-03-04 04:55:00,
2013-03-03 20:57:00,41.0,35.0,30.29,East,84,1.0,1.0,79,0.00,,---,0.00,VWS V14.01,2013-03-04 04:57:00,
2013-03-03 21:00:00,40.9,34.9,30.29,NNE,26,0.0,1.0,79,0.00,,---,0.00,VWS V14.01,2013-03-04 05:00:00,
2013-03-03 21:05:00,40.8,34.8,30.29,NNE,15,1.0,1.0,79,0.00,,---,0.00,VWS V14.01,2013-03-04 05:05:00,
2013-03-03 21:10:00,40.6,35.2,30.30,NE,47,0.0,1.0,81,0.00,,---,0.00,VWS V14.01,2013-03-04 05:10:00,
2013-03-03 21:15:00,40.6,34.9,30.30,NE,56,0.0,1.0,80,0.00,,---,0.00,VWS V14.01,2013-03-04 05:15:00,
2013-03-03 21:20:00,40.6,34.9,30.29,ENE,78,1.0,1.0,80,0.00,,---,0.00,VWS V14.01,2013-03-04 05:20:00,
2013-03-03 21:25:00,40.5,34.8,30.30,East,81,1.0,2.0,80,0.00,,---,0.00,VWS V14.01,2013-03-04 05:25:00,
2013-03-03 21:30:00,40.5,35.1,30.30,East,89,0.0,2.0,81,0.00,,---,0.00,VWS V14.01,2013-03-04 05:30:00,
2013-03-03 21:35:00,40.1,35.1,30.30,East,88,1.0,1.0,82,0.00,,---,0.00,VWS V14.01,2013-03-04 05:35:00,
2013-03-03 21:40:00,39.9,35.2,30.30,East,86,0.0,1.0,83,0.00,,---,0.00,VWS V14.01,2013-03-04 05:40:00,
2013-03-03 21:45:00,39.9,35.2,30.30,East,92,1.0,1.0,83,0.00,,---,0.00,VWS V14.01,2013-03-04 05:45:00,
2013-03-03 21:50:00,40.0,35.3,30.30,East,92,0.0,2.0,83,0.00,,---,0.00,VWS V14.01,2013-03-04 05:50:00,
2013-03-03 21:55:00,39.9,35.2,30.30,East,92,0.0,1.0,83,0.00,,---,0.00,VWS V14.01,2013-03-04 05:55:00,
2013-03-03 22:00:00,39.8,35.1,30.30,East,84,2.0,2.0,83,0.00,,---,0.00,VWS V14.01,2013-03-04 06:00:00,
2013-03-03 22:05:00,39.7,35.0,30.30,East,92,0.0,2.0,83,0.00,,---,0.00,VWS V14.01,2013-03-04 06:05:00,
2013-03-03 22:10:00,39.3,34.9,30.30,ESE,103,0.0,1.0,84,0.00,,---,0.00,VWS V14.01,2013-03-04 06:10:00,
2013-03-03 22:15:00,38.9,34.8,30.30,East,92,1.0,1.0,85,0.00,,---,0.00,VWS V14.01,2013-03-04 06:15:00,
2013-03-03 22:20:00,38.8,35.0,30.30,East,92,1.0,1.0,86,0.00,,---,0.00,VWS V14.01,2013-03-04 06:20:00,
2013-03-03 22:25:00,38.7,34.9,30.31,East,92,0.0,2.0,86,0.00,,---,0.00,VWS V14.01,2013-03-04 06:25:00,
2013-03-03 22:30:00,38.6,34.8,30.30,East,92,2.0,3.0,86,0.00,,---,0.00,VWS V14.01,2013-03-04 06:30:00,
2013-03-03 22:35:00,38.4,34.9,30.30,East,86,2.0,3.0,87,0.00,,---,0.00,VWS V14.01,2013-03-04 06:35:00,
2013-03-03 22:40:00,38.3,34.8,30.31,East,85,2.0,4.0,87,0.00,,---,0.00,VWS V14.01,2013-03-04 06:40:00,
2013-03-03 22:45:00,38.1,34.9,30.30,East,88,1.0,3.0,88,0.00,,---,0.00,VWS V14.01,2013-03-04 06:45:00,
2013-03-03 22:50:00,38.0,34.5,30.30,East,91,2.0,3.0,87,0.00,,---,0.00,VWS V14.01,2013-03-04 06:50:00,
2013-03-03 22:55:00,37.9,34.4,30.30,East,92,2.0,3.0,87,0.00,,---,0.00,VWS V14.01,2013-03-04 06:55:00,
2013-03-03 23:00:00,37.9,34.1,30.30,East,94,2.0,3.0,86,0.00,,---,0.00,VWS V14.01,2013-03-04 07:00:00,
2013-03-03 23:05:00,37.9,34.1,30.30,East,89,0.0,3.0,86,0.00,,---,0.00,VWS V14.01,2013-03-04 07:05:00,
2013-03-03 23:10:00,37.9,34.1,30.30,East,86,1.0,3.0,86,0.00,,---,0.00,VWS V14.01,2013-03-04 07:10:00,
2013-03-03 23:15:00,37.7,33.9,30.30,East,89,0.0,2.0,86,0.00,,---,0.00,VWS V14.01,2013-03-04 07:15:00,
2013-03-03 23:20:00,37.4,33.6,30.30,East,92,1.0,2.0,86,0.00,,---,0.00,VWS V14.01,2013-03-04 07:20:00,
2013-03-03 23:25:00,37.1,33.6,30.30,East,101,0.0,1.0,87,0.00,,---,0.00,VWS V14.01,2013-03-04 07:25:00,
2013-03-03 23:30:00,36.9,33.4,30.30,East,100,0.0,1.0,87,0.00,,---,0.00,VWS V14.01,2013-03-04 07:30:00,
2013-03-03 23:35:00,36.8,33.3,30.30,East,96,1.0,1.0,87,0.00,,---,0.00,VWS V14.01,2013-03-04 07:35:00,
2013-03-03 23:40:00,36.6,33.4,30.30,East,96,1.0,2.0,88,0.00,,---,0.00,VWS V14.01,2013-03-04 07:40:00,
2013-03-03 23:45:00,36.5,33.3,30.30,East,91,2.0,2.0,88,0.00,,---,0.00,VWS V14.01,2013-03-04 07:45:00,
2013-03-03 23:50:00,36.5,33.3,30.31,ESE,105,0.0,2.0,88,0.00,,---,0.00,VWS V14.01,2013-03-04 07:50:00,
2013-03-03 23:55:00,36.3,33.1,30.31,SE,126,0.0,1.0,88,0.00,,---,0.00,VWS V14.01,2013-03-04 07:55:00,